[[{"header":{"parameterUnit":"m.s-1","parameterCategory":1,"la1":30.2991,"la2":30.254,"lo1":-89.0895,"lo2":-89.0444,"dy":0.0017,"dx":0.0017,"nx":28,"ny":28,"refTime":"2024-02-01T03:00:00:Z","depth":0,"parameterNumber":2,"parameterNumberName":"U-component_of_WINDS"},"data":[0,0,0,0,0,0,0,0,0,0,0,0,0,0,0,0,0,0,0,0,0,0,0,0,0,0,0,0,0,0,0,0,0,0,0,0,0,0,0,0,0,0,0,0,0,0,0,0,0,0,0,0,0,0,0,0,0,0,-1.2515,-1.2515,0,-1.2558,-1.2559,-1.2559,-1.2542,-1.2541,-1.254,-1.2539,-1.2585,-1.2588,-1.259,0,0,0,0,0,0,0,0,0,0,0,0,0,-1.2419,-1.2421,-1.2515,-1.2515,-1.2516,-1.2558,-1.2559,-1.256,-1.2542,-1.2541,-1.254,-1.2539,-1.2585,-1.2587,-1.259,0,0,0,0,0,0,0,0,0,0,0,0,0,-1.2461,-1.2421,-1.2515,-1.2512,-1.2513,-1.2558,-1.2559,-1.256,-1.2543,-1.2541,-1.254,-1.2538,-1.2584,-1.2587,-1.259,-1.2641,0,0,-1.26,-1.2602,0,0,0,0,0,0,0,0,-1.2459,-1.2465,-1.2512,-1.2513,-1.2513,-1.2543,-1.2542,-1.2587,-1.2543,-1.2531,-1.2539,-1.2537,-1.2573,-1.2577,-1.2588,-1.2643,-1.2645,-1.2601,-1.2602,-1.2604,-1.2605,0,0,0,0,0,0,0,-1.2456,-1.2463,-1.2532,-1.2513,-1.2514,-1.251,-1.2514,-1.2551,-1.256,-1.2532,-1.2531,-1.2536,-1.2573,-1.2585,-1.2589,-1.2646,-1.26,-1.2603,-1.2605,-1.2607,-1.2745,-1.2747,0,0,0,0,0,0,-1.2453,-1.2461,-1.2531,-1.2533,-1.2482,-1.2513,-1.2518,-1.2535,-1.256,-1.2562,-1.2538,-1.2535,-1.258,-1.2586,-1.2591,-1.2652,-1.2604,-1.2607,-1.2609,-1.2744,-1.2746,-1.2748,0,0,0,0,0,0,-1.2451,-1.2459,-1.2529,-1.2497,-1.2505,-1.2516,-1.2536,-1.2537,-1.2549,-1.2564,-1.2566,-1.2549,-1.2579,-1.2586,-1.2629,-1.2653,-1.2608,-1.2611,-1.2742,-1.2744,-1.2747,-1.2775,0,0,0,0,0,0,-1.2448,-1.2459,-1.2477,-1.2497,-1.2507,-1.2566,-1.2537,-1.2539,-1.2555,-1.2552,-1.2575,-1.2577,-1.2579,-1.2624,-1.2632,-1.2657,-1.2614,-1.2739,-1.2743,-1.2746,-1.2772,-1.2778,-1.2784,0,0,0,0,0,-1.2445,-1.2484,-1.2478,-1.2487,-1.2531,-1.2567,-1.2573,-1.2574,-1.2557,-1.2576,-1.2586,-1.2576,-1.265,-1.2628,-1.2637,-1.2664,-1.2738,-1.2742,-1.2746,-1.2769,-1.2777,-1.2783,0,0,0,0,0,0,-1.2467,-1.2486,-1.2481,-1.2527,-1.2546,-1.2564,-1.2588,-1.2582,-1.2606,-1.2602,-1.2603,-1.2608,-1.2652,-1.2663,-1.2638,-1.2715,-1.2691,-1.2697,-1.2706,-1.2714,-1.2719,-1.2716,-1.2617,0,0,0,0,0,-1.2477,-1.2504,-1.252,-1.256,-1.2569,-1.2577,-1.2593,-1.2592,-1.2612,-1.2619,-1.2632,-1.2651,-1.2679,-1.2697,-1.2723,-1.2774,-1.2778,-1.2796,-1.2802,-1.2807,-1.2812,-1.284,-1.2848,-1.276,-1.276,-1.276,0,0,-1.2499,-1.2513,-1.253,-1.2565,-1.2579,-1.2607,-1.2584,-1.2615,-1.2636,-1.2624,-1.2665,-1.2675,-1.2697,-1.2744,-1.2765,-1.2754,-1.2837,-1.2812,-1.2816,-1.2818,-1.2845,-1.2853,-1.286,-1.2763,-1.2763,-1.2762,0,0,-1.2552,-1.2566,-1.26,-1.2615,-1.2636,-1.2642,-1.265,-1.267,-1.2676,-1.2717,-1.2708,-1.2734,-1.2782,-1.2798,-1.2812,-1.2873,-1.2865,-1.2882,-1.2912,-1.2939,-1.2946,-1.2952,-1.2974,-1.2982,-1.2887,-1.2887,-1.2887,0,-1.2576,-1.2618,-1.2619,-1.2651,-1.2666,-1.2657,-1.2692,-1.2707,-1.2736,-1.2747,-1.2734,-1.2794,-1.2808,-1.2859,-1.2874,-1.2886,-1.2896,-1.2879,-1.2945,-1.2951,-1.2957,-1.2978,-1.2986,-1.2889,-1.2889,-1.2888,-1.2888,0,-1.2647,-1.2676,-1.2702,-1.273,-1.2749,-1.2782,-1.2788,-1.2808,-1.2806,-1.2813,-1.2855,-1.2872,-1.2901,-1.2913,-1.2912,-1.2964,-1.2956,-1.2945,-1.2921,-1.2967,-1.2987,-1.2994,-1.2891,-1.2891,-1.289,-1.289,0,0,-1.2714,-1.2743,-1.2752,-1.2765,-1.2788,-1.2812,-1.2845,-1.2874,-1.289,-1.2912,-1.294,-1.2981,-1.297,-1.2986,-1.2987,-1.3011,-1.3058,-1.2996,-1.2997,-1.3007,-1.3117,-1.3125,-1.3134,-1.3054,-1.3055,-1.3056,-1.3115,0,-1.2769,-1.2827,-1.2829,-1.2882,-1.291,-1.2902,-1.2931,-1.2949,-1.2957,-1.2982,-1.2991,-1.302,-1.3004,-1.3014,-1.3037,-1.3047,-1.308,-1.3043,-1.308,-1.3082,-1.3074,-1.3144,-1.3153,-1.3207,-1.3123,-1.3124,-1.3125,0,-1.284,-1.2863,-1.2919,-1.2939,-1.2951,-1.2977,-1.3004,-1.3028,-1.3049,-1.3053,-1.3072,-1.3069,-1.3105,-1.3081,-1.313,-1.3105,-1.312,-1.3128,-1.313,-1.3133,-1.3105,-1.3149,-1.3225,-1.3233,-1.3137,-1.3136,-1.3135,0,-1.2884,-1.2929,-1.2968,-1.2979,-1.3004,-1.3023,-1.3034,-1.3053,-1.3071,-1.3095,-1.3106,-1.3134,-1.3149,-1.3171,-1.3176,-1.3158,-1.3225,-1.3202,-1.323,-1.323,-1.3243,-1.3242,-1.3323,-1.3255,-1.3255,-1.3255,-1.3254,0,-1.2944,-1.2979,-1.2987,-1.3011,-1.305,-1.3053,-1.3091,-1.3101,-1.3119,-1.3146,-1.3141,-1.3166,-1.3172,-1.3199,-1.3203,-1.3243,-1.325,-1.3255,-1.3256,-1.3255,-1.3254,-1.3264,-1.326,-1.3257,-1.3256,-1.3256,-1.3255,0,-1.2998,-1.3005,-1.3048,-1.3068,-1.3074,-1.3101,-1.3119,-1.3143,-1.315,-1.3184,-1.3192,-1.3205,-1.3236,-1.3244,-1.3281,-1.3284,-1.3331,-1.3329,-1.3324,-1.3323,-1.3351,-1.3348,-1.344,-1.3452,-1.3377,-1.3378,-1.3378,0,-1.3036,-1.3062,-1.3085,-1.3102,-1.3114,-1.3142,-1.316,-1.3164,-1.3183,-1.3209,-1.323,-1.326,-1.3285,-1.3335,-1.3348,-1.3377,-1.3375,-1.3405,-1.3379,-1.3378,-1.3375,-1.3373,-1.3375,-1.341,-1.341,-1.3411,-1.3412,0,-1.3102,-1.3104,-1.313,-1.3156,-1.3177,-1.3199,-1.3219,-1.3234,-1.3241,-1.3263,-1.3294,-1.3314,-1.3352,-1.3382,-1.3412,-1.3424,-1.3419,-1.342,-1.3428,-1.3427,-1.3423,-1.3425,-1.3337,-1.3417,-1.3417,-1.3416,-1.3416,-1.3416,-1.3149,-1.3172,-1.3191,-1.322,-1.3236,-1.3255,-1.3278,-1.3289,-1.3315,-1.3346,-1.3348,-1.3382,-1.3404,-1.3443,-1.3457,-1.3485,-1.3475,-1.3487,-1.349,-1.3492,-1.3495,-1.3419,-1.349,-1.349,-1.349,-1.349,-1.349,0,-1.3214,-1.3227,-1.3253,-1.3281,-1.3304,-1.3298,-1.332,-1.334,-1.337,-1.339,-1.3415,-1.3451,-1.3481,-1.3497,-1.3527,-1.3546,-1.3545,-1.3554,-1.3552,-1.3555,-1.3501,-1.3491,-1.3554,-1.3554,-1.3554,-1.3554,-1.3554,-1.3554,-1.3251,-1.3289,-1.3294,-1.3341,-1.3354,-1.3387,-1.34,-1.3419,-1.3435,-1.3476,-1.35,-1.351,-1.3529,-1.3561,-1.3588,-1.3592,-1.3603,-1.3613,-1.3616,-1.3565,-1.3559,-1.3552,-1.3543,-1.3616,-1.3616,-1.3667,-1.3668,-1.3668]},{"header":{"parameterUnit":"m.s-1","parameterCategory":1,"la1":30.2991,"la2":30.254,"lo1":-89.0895,"lo2":-89.0444,"dy":0.0017,"dx":0.0017,"nx":28,"ny":28,"refTime":"2024-02-01T03:00:00:Z","depth":0,"parameterNumber":3,"parameterNumberName":"V-component_of_WINDS"},"data":[0,0,0,0,0,0,0,0,0,0,0,0,0,0,0,0,0,0,0,0,0,0,0,0,0,0,0,0,0,0,0,0,0,0,0,0,0,0,0,0,0,0,0,0,0,0,0,0,0,0,0,0,0,0,0,0,0,0,0.7783,0.7783,0,0.7811,0.7811,0.7812,0.7823,0.7823,0.7823,0.7823,0.7851,0.7852,0.7853,0,0,0,0,0,0,0,0,0,0,0,0,0,0.7739,0.774,0.7783,0.7783,0.7784,0.7811,0.7811,0.7812,0.7823,0.7823,0.7823,0.7823,0.7851,0.7852,0.7853,0,0,0,0,0,0,0,0,0,0,0,0,0,0.7762,0.774,0.7783,0.7793,0.7794,0.7811,0.7811,0.7812,0.7823,0.7823,0.7823,0.7823,0.7851,0.7852,0.7853,0.7863,0,0,0.7857,0.7858,0,0,0,0,0,0,0,0,0.776,0.7763,0.7791,0.7792,0.7793,0.7813,0.7806,0.7829,0.7823,0.7812,0.7823,0.7823,0.7839,0.7841,0.7847,0.7864,0.7865,0.7857,0.7858,0.7858,0.7859,0,0,0,0,0,0,0,0.7759,0.7762,0.7794,0.7791,0.7793,0.7796,0.7799,0.7811,0.7826,0.7813,0.7814,0.7817,0.7839,0.7845,0.7847,0.7866,0.7857,0.7858,0.7859,0.7859,0.7893,0.7893,0,0,0,0,0,0,0.7756,0.7761,0.7793,0.7795,0.7776,0.7796,0.78,0.7807,0.7825,0.7828,0.7817,0.7817,0.7843,0.7846,0.7848,0.7861,0.7858,0.786,0.786,0.7893,0.7893,0.7893,0,0,0,0,0,0,0.7755,0.7758,0.7792,0.7778,0.7783,0.7797,0.7805,0.7808,0.7813,0.7829,0.7831,0.782,0.7843,0.7847,0.7859,0.7862,0.786,0.7861,0.7892,0.7893,0.7893,0.7886,0,0,0,0,0,0,0.7753,0.7758,0.7762,0.7778,0.7783,0.7802,0.7805,0.7808,0.7816,0.7816,0.7832,0.7835,0.7843,0.7857,0.786,0.7864,0.7862,0.7892,0.7892,0.7893,0.7886,0.7886,0.7886,0,0,0,0,0,0.7752,0.7759,0.7762,0.7766,0.7788,0.7802,0.7805,0.7815,0.7816,0.782,0.7829,0.7834,0.7861,0.7858,0.7862,0.7866,0.7892,0.7892,0.7893,0.7886,0.7886,0.7886,0,0,0,0,0,0,0.7742,0.7761,0.7765,0.7777,0.7788,0.7804,0.781,0.7815,0.7826,0.7826,0.7838,0.7841,0.7853,0.7861,0.7857,0.7876,0.7877,0.7878,0.7871,0.7871,0.7871,0.7868,0.7863,0,0,0,0,0,0.7741,0.7751,0.7767,0.7776,0.7782,0.7795,0.7801,0.7808,0.782,0.7824,0.7835,0.7846,0.7857,0.7864,0.7875,0.7887,0.7891,0.7891,0.7891,0.7891,0.7892,0.7899,0.7899,0.7894,0.7894,0.7894,0,0,0.774,0.7751,0.7757,0.7775,0.7784,0.7794,0.7799,0.7809,0.7817,0.7826,0.7839,0.7847,0.786,0.7872,0.7878,0.7879,0.7894,0.7892,0.7891,0.7892,0.7899,0.79,0.79,0.7894,0.7894,0.7894,0,0,0.7743,0.7752,0.7761,0.7771,0.7785,0.7793,0.7795,0.7811,0.7817,0.783,0.7837,0.7846,0.7865,0.7874,0.7881,0.7888,0.7893,0.7891,0.7891,0.7897,0.7898,0.7898,0.7901,0.7901,0.7892,0.7892,0.7892,0,0.7739,0.7755,0.7765,0.7775,0.7783,0.7792,0.7801,0.781,0.7827,0.7832,0.7833,0.7856,0.7866,0.7881,0.7882,0.7888,0.7891,0.7889,0.7897,0.7897,0.7898,0.79,0.7901,0.7892,0.7892,0.7892,0.7892,0,0.775,0.7761,0.7766,0.7782,0.7791,0.78,0.7812,0.7819,0.7825,0.7834,0.7847,0.7859,0.7872,0.7876,0.7882,0.7892,0.7892,0.7895,0.7896,0.7898,0.7901,0.7902,0.7891,0.7891,0.7891,0.7891,0,0,0.7747,0.7769,0.7771,0.7779,0.7795,0.7804,0.7814,0.7827,0.7833,0.7844,0.7853,0.7869,0.7872,0.788,0.7887,0.7893,0.7897,0.7895,0.7895,0.7895,0.7909,0.7907,0.7908,0.7901,0.7901,0.7901,0.7908,0,0.7752,0.7771,0.778,0.7795,0.7805,0.7814,0.7823,0.7834,0.7842,0.7852,0.7861,0.7872,0.7874,0.7879,0.7886,0.7895,0.79,0.7895,0.7909,0.7909,0.7905,0.7909,0.7907,0.7913,0.7909,0.7909,0.7909,0,0.7761,0.7772,0.7787,0.7803,0.7807,0.7815,0.7828,0.7838,0.785,0.7856,0.7865,0.7872,0.7883,0.7883,0.7899,0.7895,0.7901,0.7907,0.7908,0.7909,0.7909,0.7911,0.7915,0.7916,0.7911,0.7911,0.791,0,0.7757,0.7777,0.7788,0.7795,0.7813,0.7818,0.7826,0.7839,0.7846,0.7858,0.7863,0.7875,0.7882,0.7892,0.7902,0.7901,0.7916,0.7917,0.7921,0.7921,0.7924,0.7924,0.7929,0.7928,0.7928,0.7928,0.7928,0,0.7762,0.7771,0.7787,0.7794,0.7805,0.7816,0.7826,0.7835,0.7846,0.7855,0.7863,0.7872,0.7885,0.7895,0.7903,0.7914,0.7917,0.7922,0.7924,0.7921,0.7921,0.7926,0.7926,0.7928,0.7928,0.7928,0.7928,0,0.776,0.7771,0.7785,0.7801,0.7805,0.7812,0.7826,0.7834,0.7842,0.7854,0.7857,0.7871,0.7883,0.7894,0.791,0.7915,0.7927,0.793,0.7923,0.7924,0.7927,0.7927,0.7936,0.7938,0.7935,0.7935,0.7935,0,0.7762,0.777,0.7787,0.7793,0.7801,0.7812,0.782,0.7831,0.7839,0.7854,0.7859,0.7872,0.7883,0.7902,0.7914,0.7926,0.7929,0.7931,0.7931,0.7928,0.7929,0.7929,0.7929,0.7931,0.7931,0.7931,0.7931,0,0.7765,0.7771,0.7782,0.7794,0.7804,0.7814,0.7825,0.783,0.7844,0.7852,0.7865,0.7873,0.789,0.7902,0.7916,0.7924,0.793,0.7931,0.7933,0.793,0.7926,0.7928,0.7923,0.7931,0.7931,0.7931,0.7931,0.7931,0.7766,0.7773,0.7786,0.7798,0.7807,0.7817,0.7825,0.7835,0.7846,0.786,0.7866,0.7879,0.7892,0.7911,0.7919,0.7929,0.793,0.7933,0.7933,0.7934,0.7933,0.7924,0.7932,0.7932,0.7932,0.7932,0.7932,0,0.7769,0.7778,0.7789,0.7804,0.7814,0.7819,0.7831,0.7839,0.785,0.7861,0.7872,0.7886,0.7899,0.7911,0.7924,0.793,0.7933,0.7933,0.7933,0.7935,0.7931,0.7929,0.793,0.793,0.793,0.793,0.793,0.793,0.7772,0.7784,0.7791,0.7808,0.7817,0.783,0.7836,0.7846,0.7855,0.7871,0.7881,0.7889,0.7901,0.7915,0.7927,0.793,0.7935,0.7934,0.7938,0.7935,0.7935,0.7935,0.7932,0.7935,0.7935,0.794,0.794,0.7941]}]]